User: anonymous
Location: Unspecified
(0.0000°N, 0.0000°E)
Time: 23:39:06
(UTC+02:00)
Language:

Meteor 1-31 Rocket - Orbit

View from above orbital plane
View from above orbital plane
View from above satellite
View from above satellite

Ground track
Ground track

The orbit data is extracted from the following two-line orbital elements,

1 12586U 81065B   14211.44707974  .00000559  00000-0  42091-4 0  4302
2 12586 097.4053 208.6441 0020380 209.4078 150.6005 15.06209493797773
Epoch (UTC): 30 July 2014 10:43:47
Eccentricity: 0.0020380
inclination: 97.4053°
perigee height: 533 km
apogee height: 562 km
right ascension of ascending node: 208.6441°
argument of perigee: 209.4078°
revolutions per day: 15.06209493
mean anomaly at epoch: 150.6005°
orbit number at epoch: 79777

The dashed part of the orbit path shows where the satellite is in the earth's shadow,  

DLR